Regional Weather Roundup
Issued by NWS

Home | Current Version | Previous Version | Text Only | Print | Product List | Glossary Off
Versions: 1 2 3 4 5 6 7 8 9 10 11 12 13 14 15 16 17 18 19 20 21 22 23 24 25 26 27 28 29 30 31 32 33 34 35 36 37 38 39 40 41 42 43 44 45 46 47 48 49 50

418
ASUS45 KSLC 262210
RWRUT

UTAH REGIONAL WEATHER ROUNDUP
NATIONAL WEATHER SERVICE SALT LAKE CITY UT
400 PM MDT WED JUL 26 2017

UTZ001>011-023>025-262300-

NORTHERN UTAH

CITY           SKY/WX    TMP DP  RH WIND       PRES   REMARKS
BRIGHAM CITY   SUNNY     84  48  28 CALM      30.15F
HILL AFB       SUNNY     83  55  37 N6        30.18F
LOGAN          SUNNY     83  57  41 VRB3      30.16F
OGDEN          SUNNY     85  53  33 VRB3      30.15F
SALT LAKE CITY MOSUNNY   87  58  37 N8        30.13F
TOOELE VALLEY  SUNNY     86  57  37 NE7       30.15F
WENDOVER       SUNNY     88  51  28 E10       30.11F
HEBER CITY     SUNNY     81  52  36 NW9       30.21F
WEST JORDAN    MOSUNNY   83  62  49 NE3       30.18F

$$

UTZ011>015-024>027-262300-

CENTRAL/NORTHEAST UTAH

CITY           SKY/WX    TMP DP  RH WIND       PRES   REMARKS
PROVO AIRPORT  MOSUNNY   84  57  39 W6        30.17F HAZE
MOAB/CANYONLAN SUNNY     88  59  37 SW10      30.13F
DELTA          SUNNY     86  46  25 S3        30.17S
PRICE          MOSUNNY   82  59  45 S9        30.24F
RICHFIELD      SUNNY     86  57  37 NE12      30.20F
ROOSEVELT      PTSUNNY   82  54  36 SE3       30.22S
VERNAL         PTSUNNY   82  58  43 CALM      30.20S

$$

UTZ013>016-019>022-027-262300-

SOUTHERN UTAH

CITY           SKY/WX    TMP DP  RH WIND       PRES   REMARKS
BRYCE CANYON   LGT RAIN  64  59  83 W10       30.42F
CEDAR CITY     MOSUNNY   84  56  38 VRB3      30.23F
MILFORD        MOSUNNY   88  51  28 SE8       30.16F
ST GEORGE      CLEAR     91  61  36 W6        30.06F HX  91
HANKSVILLE     PTSUNNY   88  52  29 SE6       30.16F
KANAB          SUNNY     86  57  37 SW7       30.23F
BLANDING       MOSUNNY   86  51  30 CALM      30.31F

$$

REGIONAL REPORTS     COLORADO/ARIZONA

CITY           SKY/WX    TMP DP  RH WIND       PRES   REMARKS
CRAIG, CO      PTSUNNY   74  58  57 CALM      30.27F
GRAND JUNCTION SUNNY     88  60  38 W9        30.15F
RIFLE, CO      SUNNY     83  61  47 N5        30.21F
MONTROSE, CO   SUNNY     85  55  35 VRB7      30.22F
CORTEZ, CO     SUNNY     86  53  32 VRB5      30.24F
COLORADO CITY    N/A     88  57  35 CALM      30.24F
PAGE, AZ       SUNNY     92  54  27 N7        30.13F HX  90
GRAND CANYON   MOSUNNY   81  51  35 SW6       30.34F
KINGMAN, AZ    MOSUNNY   91  57  31 S5        30.10F
FLAGSTAFF, AZ  PTSUNNY   75  55  49 VRB7      30.36F

$$

REGIONAL REPORTS    NEVADA/IDAHO/WYOMING

CITY           SKY/WX    TMP DP  RH WIND       PRES   REMARKS
LAS VEGAS, NV  MOSUNNY   99  63  30 E12       29.98F HX 101
ELY, NY        MOSUNNY   81  48  31 MISG      30.23F
ELKO, NV       SUNNY     87  43  21 SW7       30.13F
POCATELLO, ID  MOSUNNY   79  56  45 NW8       30.16F
BURLEY, ID     MOSUNNY   84  51  31 N6        30.10F
FORT BRIDGER,  CLOUDY    72  57  60 NE5       30.37S
EVANSTON, WY   MOSUNNY   77  52  41 W9        30.33F
ROCK SPRINGS,  RAIN      65  56  72 VRB6      30.34R
KEMMERER, WY     N/A     73  52  46 W5        30.35F

$$




USA.gov is the U.S. government's official web portal to all federal, state and local government web resources and services.